Location: Dr�ber
(51.7626°N, 9.9298°E)
Time: 11:06:17
(UTC+00:00)

Daily predictions for brighter satellites

Satellite Brightness Start Highest point End
(mag) Time Altitude Azimuth Time Altitude Azimuth Time Altitude Azimuth
ATLAS 5 CENTAUR R/B 3.5 19:39:11 10° NW 19:43:37 30° NNE 19:48:45 10° E
Terra 3.4 19:41:20 10° ESE 19:44:55 22° ENE 19:48:31 10° N
RESURS DK-1 3.3 19:42:06 10° SW 19:46:12 55° NW 19:50:19 10° NNE
Cosmos 332 Rocket 4.1 19:41:25 10° NNW 19:46:19 72° WSW 19:51:12 10° SSE
Meteor 2-3 Rocket 4.0 19:42:40 10° S 19:48:08 52° E 19:53:43 10° NNE
SPOT 3 Rocket 3.6 19:43:37 10° SSE 19:48:50 76° ENE 19:54:04 10° NNW
Cosmos 1933 3.3 19:47:16 10° N 19:51:21 80° E 19:55:23 10° SSE
Cosmos 1271 Rocket 2.8 19:48:38 10° N 19:52:38 74° ENE 19:56:39 10° SSE
NOSS 3-1 (C) 4.4 19:45:58 10° NW 19:52:53 58° NE 20:01:06 10° ESE
COSMOS 2428 4.3 19:48:34 10° NNW 19:53:18 26° NE 19:57:59 10° E
Cosmos 1328 Rocket 4.4 19:49:35 10° N 19:53:42 35° ENE 19:57:46 10° SE
Gbstr 26 Del rocket 3.8 19:50:58 10° W 19:54:20 33° SSW 19:57:51 10° SE
Cosmos 1766 Rocket 4.5 19:52:05 10° SSE 19:55:53 30° E 19:59:42 10° NNE
Cosmos 1538 Rocket 4.1 19:52:04 10° SSW 19:57:16 85° WNW 20:02:30 10° NNE
OBJECT-B 3.7 19:56:16 10° SW 19:58:21 16° W 20:00:26 10° NW
CZ-3B R/B 4.1 19:38:20 10° W 20:00:33 74° N 20:05:23 10° E
SPOT 5 3.6 19:57:50 10° SE 20:01:46 34° ENE 20:05:49 10° N
IGS 5A 3.9 19:58:10 10° S 20:02:17 65° WSW 20:06:26 10° NNW
Cosmos 2098 Rocket 3.4 19:59:12 10° SSW 20:02:32 58° WNW 20:06:40 10° N
ARIANE 5 R/B 3.3 19:59:15 10° SE 20:03:27 42° ENE 20:07:38 10° N
Meteor 2-19 Rocket 4.4 19:58:00 10° S 20:04:01 79° E 20:10:07 10° NNE
Cosmos 2195 Rocket 4.5 20:00:28 10° S 20:06:31 69° E 20:12:36 10° NNE
Cosmos 1782 2.8 20:03:16 10° N 20:07:18 72° ENE 20:11:18 10° SSE
Ariane Rocket 4.0 20:03:11 10° S 20:08:03 45° W 20:12:56 10° NNW
Landsat 7 4.2 20:04:44 10° S 20:09:27 66° WSW 20:14:14 10° NNW
Cosmos 1624 Rocket 4.1 20:05:54 10° NNW 20:11:07 65° ENE 20:16:05 11° SE
Cosmos 2082 Rocket 3.4 20:08:43 10° SW 20:14:10 48° NW 20:19:42 10° NNE
Cosmos 220 Rocket 4.0 20:10:00 10° NNW 20:14:22 84° ENE 20:18:36 11° SSE
ATLAS 3B R/B 4.2 20:12:22 10° WNW 20:18:26 31° WSW 20:24:42 10° S
Cosmos 2360 Rocket 2.3 20:13:06 10° NNW 20:18:46 72° ENE 20:23:55 13° SE
Cosmos 1420 Rocket 4.4 20:14:18 10° NNW 20:19:33 54° ENE 20:24:12 13° SE
CZ-4C R/B 4.3 20:14:20 10° WNW 20:19:35 30° N 20:25:48 10° ENE
ATLAS 2AS CENTAUR R/B 3.9 20:15:30 10° WSW 20:23:14 54° NNW 20:30:39 10° NE
Cosmos 1174 3.4 20:21:13 10° NNW 20:24:14 55° NE 20:26:29 16° ESE
MetOp-B 4.5 20:19:59 10° S 20:25:19 66° WSW 20:30:41 10° NNW
Cosmos 1092 Rocket 4.1 20:21:33 10° S 20:27:50 84° W 20:34:14 10° N
NOSS 3-1 (A) 4.4 20:22:23 10° NW 20:29:20 59° NE 20:37:34 10° ESE
NOSS 2-1 (C) 3.4 20:29:38 10° SSW 20:32:38 34° SE 20:35:44 10° ENE
Cosmos 2151 4.0 20:28:33 10° SSW 20:32:40 49° WNW 20:36:52 10° N
ERS-2 3.5 20:29:27 10° N 20:32:55 42° WNW 20:36:22 10° SW
Cosmos 2026 Rocket 4.1 20:30:30 10° S 20:36:50 87° W 20:43:07 10° N
Cosmos 1812 2.7 20:33:30 10° N 20:37:24 78° E 20:40:31 15° SSE
Cosmos 2084 3.4 20:34:15 10° SSW 20:38:12 52° SE 20:42:17 10° NE
COSMOS 2455 3.9 20:34:50 13° SSE 20:38:56 25° ESE 20:43:44 10° NE
GP-B 3.2 20:34:32 10° N 20:39:00 80° W 20:43:26 10° S
Meteor 1-27 Rocket 4.4 20:33:44 10° N 20:39:05 42° ENE 20:43:22 16° SE
Cosmos 2333 Rocket 2.6 20:34:18 10° NNW 20:39:53 57° NE 20:44:24 16° SE
NOSS 2-1 (D) 3.2 20:37:16 10° SSW 20:40:21 40° SE 20:43:35 10° NE
Cosmos 1452 Rocket 4.2 20:36:55 10° NNW 20:41:58 45° ENE 20:45:57 16° SE
Cosmos 923 Rocket 4.2 20:38:05 10° SSW 20:43:26 79° WNW 20:48:49 10° NNE
SPOT 1/Viking Rocket 4.3 20:39:17 10° S 20:44:20 52° W 20:49:28 10° NNW
ERS-1 Rocket 3.0 20:40:25 14° SSE 20:44:45 82° ENE 20:49:48 10° NNW
USA 245 4.2 20:42:26 10° S 20:47:01 51° WSW 20:50:42 10° NNW
Cosmos 2322 4.0 20:41:24 10° NNW 20:47:06 60° NE 20:51:30 17° SE
SL-27 R/B 2.7 20:44:41 13° S 20:47:46 48° ESE 20:51:17 10° NNE
Cosmos 2056 Rocket 3.8 20:46:38 10° NNW 20:51:58 66° WSW 20:56:16 15° S
Cosmos 2237 Rocket 3.8 20:47:37 10° NNW 20:52:22 26° NE 20:57:08 10° E
Cosmos 2322 Rocket 3.0 20:47:37 10° NW 20:52:57 44° WSW 20:57:55 12° S
Okean 3 Rocket 3.7 20:48:54 10° SSW 20:53:24 84° WNW 20:57:58 10° N
Cosmos 1408 Rocket 3.7 20:50:55 16° S 20:54:16 56° E 20:58:31 10° NNE
Meteor 2-14 Rocket 4.4 20:49:26 10° S 20:55:34 76° E 21:01:43 10° NNE
Cosmos 1743 Rocket 4.3 20:55:45 20° SE 20:58:09 35° E 21:02:13 10° NNE
CZ-4B DEB 4.4 21:00:12 27° SE 21:01:41 56° ENE 21:04:48 10° N
Meteor 1-10 Rocket 4.2 20:57:27 10° NNW 21:03:03 90° ENE 21:07:16 18° S
CARTOSAT-1 4.4 20:59:31 12° S 21:03:22 47° W 21:07:35 10° NNW
USA 234 3.7 20:57:59 10° E 21:04:26 63° NNE 21:10:54 10° WNW
Gblst 52 Del rocket 4.4 20:59:58 10° W 21:05:55 75° SSW 21:11:50 14° ESE
Spot 2 Rocket 4.3 21:03:04 11° S 21:07:48 49° W 21:12:46 10° NNW
Cosmos 2219 Rocket 2.2 21:05:07 10° NNW 21:10:44 75° ENE 21:14:26 22° SE
Resurs 01 Rocket 4.2 21:12:21 10° SW 21:15:03 16° W 21:17:47 10° NW
Cosmos 1680 Rocket 4.2 21:12:18 10° SW 21:17:29 57° WNW 21:22:41 10° NNE
Cosmos 1515 Rocket 3.8 21:13:14 10° NNW 21:17:39 66° W 21:20:37 20° S
Cosmos 2112 Rocket 4.5 21:12:42 10° SW 21:17:58 64° WNW 21:23:12 10° NNE
SL-16 R/B 4.3 21:17:19 10° NNW 21:21:29 20° NNE 21:25:39 10° E
Cosmos 2285 Rocket 4.0 21:15:51 10° NNW 21:22:11 76° ENE 21:26:17 23° SSE
Terra 2.1 21:19:00 20° S 21:22:15 66° WSW 21:27:01 10° NNW
SL-16 R/B 4.1 21:18:58 10° NW 21:23:12 22° WSW 21:27:25 10° SSW
Cosmos 2266 Rocket 4.0 21:19:57 18° S 21:24:40 72° E 21:30:57 10° NNE
Cosmos 2315 Rocket 4.1 21:20:32 10° N 21:26:52 71° ENE 21:30:56 24° SSE
IRIDIUM 103 4.5 21:22:12 10° N 21:27:25 62° E 21:30:18 26° SSE
ATLAS 5 CENTAUR R/B 2.3 21:23:35 10° NW 21:28:55 81° NE 21:33:05 22° SE
Cosmos 2333 4.4 21:24:22 10° NW 21:29:55 63° WSW 21:33:17 24° S
Cosmos 2228 Rocket 3.0 21:28:42 10° N 21:33:09 77° E 21:35:17 30° SSE
Okean 1 4.3 21:34:21 10° N 21:38:03 34° ENE 21:39:27 26° ESE
COSMOS 2428 2.7 21:32:34 10° NNW 21:38:19 87° WSW 21:41:31 27° SSE
NOSS 2-1 (E) 3.2 21:35:17 10° SW 21:38:32 66° NW 21:42:08 10° NE
SPOT 5 4.0 21:36:47 14° SSW 21:39:54 32° W 21:43:55 10° NNW
ARIANE 5 R/B 4.3 21:36:31 11° SSW 21:40:02 27° W 21:43:51 10° NW
NOSS 3-1 (C) 4.4 21:36:50 10° NW 21:44:02 56° SW 21:49:24 23° SSE
Cosmos 1707 Rocket 4.0 21:40:00 10° N 21:44:15 48° ENE 21:45:57 31° SE
IRIDIUM 106 4.3 21:40:25 10° N 21:45:41 85° E 21:48:29 29° S
Cosmos 1048 Rocket 4.0 21:48:39 29° S 21:51:07 58° ESE 21:56:09 10° NNE
Cosmos 1655 Rocket 4.4 21:54:12 13° SSW 21:59:51 63° WNW 22:06:14 10° N
USA 229 DEB 4.0 21:52:52 10° NW 22:00:03 65° SW 22:04:27 27° SSE
USA 229 4.0 21:52:58 10° NW 22:00:09 66° SW 22:04:33 27° SSE
ALOS 2 3.4 21:59:23 28° ESE 22:01:08 41° ENE 22:05:16 10° N
COSMOS 2487 2.3 22:00:10 41° SSW 22:01:14 79° WNW 22:04:39 10° NNE
Cosmos 2360 Rocket 3.9 21:57:53 10° NW 22:02:13 23° WSW 22:05:41 14° SW
Cosmos 972 Rocket 3.9 21:59:17 22° SSW 22:02:42 89° WNW 22:07:41 10° NNE
Cosmos 1805 Rocket 3.5 22:02:11 34° S 22:04:06 90° ESE 22:08:34 10° N
Cosmos 2084 Rocket 3.3 22:03:37 10° NW 22:07:48 89° SW 22:09:17 40° SE
CZ-4C R/B 3.8 22:03:29 10° NW 22:09:44 43° NNE 22:17:12 10° E
USA 267 3.6 22:05:11 10° ENE 22:11:21 42° SE 22:14:48 24° SSW
Cosmos 1980 3.7 22:09:02 10° NNW 22:14:44 76° ENE 22:17:31 31° SE
NOSS 0 Rocket 3.9 22:09:35 10° NW 22:15:51 79° WSW 22:18:54 32° SSE
NOSS 3-1 (A) 4.3 22:13:18 10° NW 22:20:31 55° SW 22:25:00 28° S
Cosmos 2333 Rocket 3.4 22:18:59 10° NW 22:23:53 31° WSW 22:26:23 22° SSW
COSMOS 2455 2.9 22:18:17 10° SW 22:24:19 78° NW 22:30:23 10° NE
Lacrosse 5 2.6 22:25:49 32° SE 22:25:49 32° SE 22:30:04 10° ENE
Meteor 1-20 Rocket 4.2 22:23:03 29° SSW 22:26:03 84° WNW 22:31:50 10° NNE
Nadezhda 2 Rocket 4.5 22:23:24 30° S 22:26:49 85° E 22:33:18 10° N
COBE Rocket 4.1 22:26:51 35° SSW 22:28:34 58° W 22:33:15 10° NNW
NOSS 2-2 (D) 4.2 22:24:36 10° NW 22:29:36 88° NE 22:33:24 27° SE
Cosmos 972 4.5 22:28:20 32° SSW 22:30:58 84° ESE 22:36:04 10° NNE
BREEZE-M R/B 2.9 22:31:56 43° SE 22:31:56 43° SE 22:36:10 10° E
Cosmos 2297 Rocket 2.8 22:32:07 33° SE 22:33:33 39° ESE 22:38:46 10° NE
Cosmos 1500 3.1 22:34:31 59° SSE 22:35:04 70° E 22:38:56 10° NNE
Sich 1 3.4 22:34:10 32° SW 22:35:57 57° WNW 22:40:14 10° N
Cosmos 2237 Rocket 2.1 22:31:24 10° NNW 22:37:07 83° WSW 22:39:29 37° SSE
Cosmos 1244 Rocket 4.4 22:34:48 31° S 22:37:58 87° W 22:44:14 10° N
BREEZE-M DEB (TANK) 4.3 22:41:17 10° W 22:42:19 14° WSW 22:42:19 14° WSW
Cosmos 1470 Rocket 3.8 22:43:08 45° SE 22:43:57 53° E 22:48:11 10° NNE
Cosmos 1633 Rocket 2.9 22:44:03 49° S 22:45:13 90° ESE 22:49:37 10° N
Cosmos 2227 Rocket 2.9 22:44:30 32° SE 22:45:49 36° ESE 22:50:58 10° NE
USA 234 3.2 22:42:59 23° SE 22:47:24 76° SSW 22:54:00 10° WNW
Cosmos 1933 Rocket 4.2 22:49:28 37° ESE 22:50:21 42° E 22:54:34 10° NNE
APEX 4.4 22:48:05 29° SSW 22:51:20 86° ESE 22:58:11 10° NNE
Cosmos 1666 Rocket 3.8 22:50:45 40° SW 22:52:13 66° WNW 22:56:41 10° N
Cosmos 2242 Rocket 4.1 22:48:11 10° N 22:52:29 48° ENE 22:53:45 37° ESE
Cosmos 2219 Rocket 3.7 22:49:54 10° NW 22:54:08 22° WSW 22:56:08 18° SW
Cosmos 1340 Rocket 3.4 22:54:24 40° ESE 22:54:42 40° E 22:58:26 10° NNE
Cosmos 1378 3.7 22:51:45 10° N 22:55:20 46° ENE 22:55:52 42° ESE
Cosmos 44 4.4 22:58:23 10° NW 23:03:32 45° NE 23:07:58 12° ESE
SL-16 R/B 2.4 23:01:01 10° NNW 23:06:42 68° ENE 23:09:38 29° SE
Cosmos 1862 Rocket 4.3 23:09:02 10° NNW 23:13:09 41° W 23:14:06 36° SW
ATLAS 5 CENTAUR R/B 3.5 23:08:35 10° WNW 23:13:20 28° WSW 23:14:34 26° SW
Okean 3 4.1 23:10:42 10° N 23:14:51 47° ENE 23:16:01 37° ESE
Meteor 2-4 Rocket 4.2 23:16:59 10° NNW 23:22:45 53° W 23:24:59 34° SSW
Intercosmos 25 Rocket 4.2 23:24:02 41° SE 23:25:12 53° E 23:31:12 10° NNE
Cosmos 1743 4.0 23:25:44 27° ESE 23:26:09 27° E 23:29:27 10° NNE
Cosmos 1666 2.9 23:26:25 51° WSW 23:27:01 59° WNW 23:30:51 10° N
Meteor 1-11 Rocket 3.9 23:25:58 38° SSE 23:27:52 58° E 23:33:17 10° NNE
Cosmos 1703 Rocket 3.5 23:24:21 10° NNW 23:28:44 78° W 23:29:38 55° S
PSLV R/B 4.0 23:28:09 10° NNE 23:32:54 61° E 23:34:07 45° SSE
Cosmos 1709 Rocket 4.0 23:30:39 37° S 23:33:24 79° E 23:39:49 10° NNE
Cosmos 1992 Rocket 4.0 23:29:51 10° NNW 23:35:05 71° WSW 23:36:41 44° S
ASTEX 1 4.3 23:35:16 26° SE 23:37:28 40° ENE 23:42:05 10° N
ALOS 2 3.9 23:36:46 25° WSW 23:37:35 27° W 23:41:21 10° NW
Meteor 1-5 Rocket 4.5 23:35:45 34° SSW 23:38:18 67° WNW 23:44:14 10° N
Cosmos 1943 4.5 23:33:18 10° NNW 23:38:39 39° NE 23:43:58 10° ESE
Cosmos 909 Rocket 4.3 23:36:15 34° SSW 23:39:22 69° ESE 23:47:19 10° NE
Cosmos 1745 Rocket 4.3 23:39:16 30° SW 23:42:19 60° WNW 23:48:36 10° N
CZ-2D R/B 4.1 23:39:06 10° NE 23:42:44 18° E 23:45:32 13° ESE
Cosmos 2219 3.2 23:42:23 35° SW 23:44:56 85° WNW 23:50:45 10° NNE
Cosmos 1066 Rocket 4.3 23:40:31 10° NNW 23:46:24 77° W 23:48:42 39° S
Cosmos 1269 Rocket 4.5 23:47:42 29° SW 23:50:15 57° WNW 23:55:29 10° NNE
Meteor 1-13 Rocket 4.4 23:44:41 10° NNW 23:50:24 63° W 23:52:26 39° SSW
Meteor 1-23 Rocket 4.2 23:47:25 10° NNW 23:53:11 85° ENE 23:55:43 36° SSE
Timation 1 Rocket 4.3 23:51:20 36° SSW 23:53:55 83° ESE 23:59:57 10° NNE
Okean 1-7 3.6 23:51:37 10° NNW 23:55:39 42° W 23:56:20 39° WSW
